Theta_e
310 310 310 310 310 310 310 310 310 310 310 310 310 310 311 311 311 312 312 312 313 313 313 314 313 314 314 314 314 314 313 313 313 313 313 314 315 316 315 314 313 314 315 316 316 316 316 315 316 316 317 318 319 321 320 320 320 320 321 320 320 320 320 321 320 319 319 319 319 319 319 318 318 318 318 317 317 317 317 318 318 318 318 317 317 317 317 316
310 310 310 310 310 310 310 310 310 310 310 310 310 310 310 310 311 311 311 312 312 312 313 313 313 313 313 313 313 313 313 313 313 313 314 313 314 315 315 315 314 314 314 315 315 316 316 316 317 316 317 320 320 320 321 320 320 320 321 321 320 320 320 321 320 319 319 319 319 319 319 318 318 318 318 317 317 318 318 318 319 318 319 318 318 318 317 317
310 310 310 310 310 310 310 310 310 310 310 310 311 311 311 311 311 311 311 311 311 311 312 312 312 312 312 312 312 312 313 313 314 315 314 314 314 314 314 315 315 314 314 314 315 316 316 316 317 317 318 319 319 320 321 321 320 320 320 320 321 321 321 321 320 319 319 318 319 319 318 318 318 318 318 317 317 317 317 318 319 319 319 319 319 318 318 318
309 310 310 310 310 310 310 310 310 311 311 311 311 311 311 311 311 311 311 311 311 311 311 312 311 311 312 312 312 312 312 314 317 316 314 315 315 314 314 315 315 315 314 314 315 315 315 315 316 316 318 319 319 320 320 321 321 320 321 320 319 321 321 321 320 319 319 319 318 318 318 318 318 318 318 318 317 317 318 318 318 319 318 318 318 318 318 318
309 310 310 310 310 310 311 311 311 311 311 311 311 311 311 311 311 311 311 311 312 311 312 312 311 312 312 311 312 311 313 316 317 315 314 315 315 314 314 314 315 315 314 314 314 315 315 315 316 316 318 318 318 319 319 320 321 320 321 320 319 319 320 320 319 319 319 318 318 318 318 318 318 318 318 318 317 317 317 317 317 317 318 317 317 318 318 318
309 310 310 310 310 310 311 311 311 311 311 311 311 311 311 311 311 311 311 312 312 312 312 312 312 313 313 313 312 312 314 316 316 315 315 315 314 314 314 314 315 315 314 314 314 315 315 315 316 317 317 317 317 318 318 319 320 319 319 319 319 319 319 320 319 319 319 318 318 318 318 318 318 318 318 318 317 318 318 317 317 317 317 317 317 317 317 317
310 310 311 311 311 311 312 312 312 312 312 312 312 312 312 313 313 313 313 313 313 313 313 314 314 314 314 313 313 313 315 317 316 316 315 315 315 315 314 315 315 315 314 315 315 315 316 316 316 317 317 317 317 317 317 319 320 318 317 318 318 319 320 319 318 318 318 318 318 318 318 318 318 317 318 318 318 318 318 318 318 317 317 317 317 317 317 316
312 312 313 313 313 313 314 314 314 314 314 314 314 314 314 314 314 314 314 314 315 315 315 315 315 315 314 313 313 314 316 316 316 316 315 315 315 314 314 315 315 315 315 315 316 316 316 317 316 317 317 317 317 317 317 318 318 318 317 317 318 319 319 319 318 318 318 318 317 317 317 317 317 317 317 317 317 317 317 317 317 317 317 317 317 316 316 316
315 316 316 316 316 317 317 317 318 318 318 318 318 317 317 317 317 317 316 316 316 316 317 317 317 317 317 315 313 315 317 317 316 316 316 315 315 315 315 315 315 315 315 315 316 317 317 317 317 317 316 317 317 317 317 316 316 317 318 318 318 318 318 317 317 317 317 317 316 316 316 317 317 316 316 317 317 317 317 316 317 316 316 316 316 316 316 315
320 320 320 320 320 321 321 321 321 321 321 321 321 321 321 321 321 321 320 320 320 320 320 320 321 321 321 319 316 316 318 317 316 315 315 315 315 315 315 315 316 315 315 315 316 316 317 317 317 317 316 316 317 316 317 316 316 316 317 316 316 316 316 316 316 316 316 316 316 316 315 316 316 315 315 316 317 316 316 316 316 316 315 316 316 316 316 315
320 320 320 320 320 320 320 320 320 320 320 320 320 320 320 321 321 321 321 321 322 322 322 323 323 323 323 320 318 319 319 317 317 317 317 317 315 314 314 315 315 315 316 316 315 315 316 317 317 316 315 316 316 316 316 316 315 315 315 315 315 315 315 316 316 316 316 316 315 315 315 315 315 315 315 316 316 316 316 316 316 316 315 315 316 316 316 316
317 317 316 316 316 315 315 315 315 315 315 315 315 316 316 316 316 316 317 317 318 318 318 319 319 320 320 318 318 321 321 320 321 321 320 320 317 314 313 314 315 315 316 316 316 315 315 316 316 315 315 315 316 316 315 314 314 314 314 313 314 315 315 316 316 316 317 316 314 314 314 314 315 315 316 316 316 316 316 316 316 315 315 315 315 315 316 316
314 314 314 313 313 312 313 312 312 313 313 313 313 313 314 314 314 315 315 315 315 316 315 315 315 315 315 316 318 319 320 320 321 321 321 321 318 315 313 313 314 314 314 315 316 316 314 314 315 316 315 315 315 315 314 313 313 314 314 314 314 315 315 317 317 316 315 315 314 313 313 314 316 317 317 317 316 316 316 315 315 315 315 315 315 315 315 315
313 313 313 313 313 313 313 313 313 313 313 314 314 314 314 314 315 315 315 315 315 315 315 315 314 313 312 315 317 316 317 317 317 318 319 320 319 316 314 313 313 313 313 313 314 314 314 314 315 315 315 314 315 314 313 314 314 314 314 315 314 314 316 317 317 314 314 314 313 313 312 314 316 317 317 316 316 315 315 315 315 315 315 315 315 315 315 315
313 313 313 313 313 313 314 314 314 315 315 315 315 315 315 315 315 315 315 315 315 315 315 314 314 313 313 315 316 316 316 316 316 317 317 318 317 315 314 312 312 312 312 312 313 313 313 314 314 315 315 314 314 313 314 314 314 315 315 315 316 316 317 318 317 315 315 314 312 313 313 315 316 317 317 316 316 315 315 315 315 315 315 315 316 315 316 315
313 313 313 314 314 315 315 315 315 315 315 315 315 315 315 315 315 315 315 315 315 315 314 313 313 312 314 316 316 316 316 315 316 316 316 316 315 314 314 313 312 312 312 312 313 313 313 313 314 314 314 314 314 314 314 315 316 316 316 315 317 317 317 318 318 317 316 314 312 313 313 314 315 316 316 316 315 315 315 315 315 315 315 315 316 315 315 316
313 314 314 315 315 315 315 315 316 316 316 316 316 317 317 318 317 317 316 316 315 314 313 313 312 312 314 317 317 316 316 315 315 315 315 314 314 314 313 313 312 312 312 312 312 312 312 313 313 313 314 314 314 315 315 316 316 317 318 317 317 318 317 317 318 318 316 313 313 313 313 313 314 315 316 315 315 315 315 315 315 316 316 315 315 315 315 315
314 314 315 316 316 317 318 318 319 320 320 321 321 321 322 321 320 318 318 316 315 314 314 313 313 314 317 316 316 316 315 315 314 314 314 314 314 313 313 313 313 313 313 313 313 312 312 314 313 314 315 315 314 315 316 317 317 318 318 317 318 318 317 317 318 318 316 315 315 315 314 314 315 315 316 316 316 315 315 316 316 315 316 316 316 316 316 316
317 317 318 320 320 321 322 322 322 323 324 324 324 324 324 322 321 319 317 315 314 316 316 314 314 317 319 316 315 315 315 314 314 314 314 314 314 314 313 313 313 314 315 314 314 314 313 315 314 314 317 317 316 316 316 318 318 318 318 317 317 317 317 317 317 318 317 315 315 315 315 315 315 315 315 316 315 316 316 316 316 316 316 316 317 316 316 316
321 321 322 322 323 323 323 323 324 324 324 325 324 324 323 323 323 320 317 315 316 318 318 317 316 317 318 317 317 317 316 316 315 315 314 314 314 314 313 313 314 314 315 316 316 314 314 316 316 316 317 318 319 318 317 318 317 317 317 316 316 316 316 317 317 317 317 314 314 315 314 314 314 315 315 316 316 316 317 316 316 317 317 317 317 316 316 316
323 323 324 323 324 324 324 324 324 325 324 324 323 323 323 322 323 321 319 320 321 321 321 322 320 319 320 319 318 318 317 317 316 315 314 314 313 314 314 314 315 315 316 317 316 313 314 316 317 317 317 318 318 317 316 317 316 316 316 315 316 316 316 316 317 317 315 313 314 314 314 314 314 315 316 316 316 316 317 317 317 317 318 318 317 316 315 315
323 324 324 324 324 324 324 324 324 324 323 323 322 322 323 322 322 321 319 321 323 322 322 323 322 322 322 320 320 320 318 317 317 316 314 314 313 315 315 314 315 316 316 316 315 314 315 316 316 317 318 318 317 316 315 315 315 315 315 315 316 316 316 317 316 316 313 312 314 314 314 314 314 315 316 317 317 317 317 318 318 318 317 316 315 314 314 313
324 324 324 324 324 324 324 324 324 323 322 322 322 322 322 322 322 320 318 318 321 322 322 321 321 321 321 319 320 319 317 317 319 317 314 314 313 314 315 315 315 316 316 315 316 317 317 317 317 317 318 317 316 315 314 314 314 315 315 315 316 316 317 317 316 315 314 314 314 314 313 314 316 316 317 318 318 318 318 318 317 317 316 315 314 313 312 311
323 323 323 323 323 322 322 323 323 323 322 322 322 322 322 322 321 319 317 318 321 321 321 320 319 318 318 317 317 317 317 317 317 316 314 314 314 314 315 316 316 316 316 315 316 317 318 318 317 316 316 316 315 315 315 314 315 316 316 316 316 317 317 316 316 315 315 315 314 314 315 318 319 319 318 318 318 318 317 316 316 315 314 313 312 311 311 310
322 322 322 321 321 321 321 322 322 322 322 322 322 322 322 321 320 318 316 319 322 321 319 318 316 316 316 315 314 315 316 316 316 315 314 314 315 314 315 315 316 317 317 316 317 316 317 317 316 315 315 315 315 315 315 316 316 316 317 317 317 317 317 316 316 315 315 316 314 314 318 320 319 319 320 319 319 318 316 314 313 313 313 312 310 310 309 309
321 321 321 321 322 322 322 322 322 322 322 323 322 322 322 321 319 317 316 320 323 322 320 317 316 315 313 312 312 313 316 316 314 313 313 313 314 314 314 315 315 316 316 316 316 316 316 315 314 315 316 316 316 315 316 316 316 317 317 317 316 316 316 316 316 315 316 317 316 314 317 320 319 319 320 318 319 318 314 312 312 312 311 310 309 309 308 307
323 323 322 322 322 322 323 323 323 322 323 323 323 321 321 321 318 316 317 323 325 322 319 316 314 314 311 311 311 313 316 315 312 311 311 312 313 312 314 315 314 314 313 314 316 316 315 314 313 314 315 316 316 315 316 316 316 317 316 315 315 315 315 316 315 315 315 316 316 315 316 318 319 319 319 318 319 318 314 312 312 311 310 309 308 307 306 306
324 324 324 323 323 322 323 323 322 322 323 323 322 322 321 319 318 316 320 328 327 319 317 314 312 312 310 310 311 311 312 312 313 312 310 311 312 312 313 315 315 314 312 314 316 316 315 314 314 315 315 316 316 316 317 316 316 316 313 313 314 313 314 314 314 314 315 315 317 316 316 318 319 319 319 318 318 317 314 312 311 310 310 309 307 307 305 304
325 324 324 323 323 323 322 322 321 322 323 322 321 322 321 319 318 317 322 328 325 317 315 313 311 312 310 310 311 310 310 310 312 312 310 312 312 311 312 313 314 314 312 313 315 316 314 312 313 315 315 316 315 314 315 316 316 314 312 313 313 313 313 313 313 314 314 315 318 318 317 319 320 318 318 318 316 316 314 311 311 310 309 308 307 306 305 304
323 323 322 322 322 322 322 322 322 321 322 322 321 321 321 319 317 320 325 325 321 317 314 312 312 312 312 312 312 311 310 311 311 311 311 312 312 311 311 311 311 312 313 313 313 314 312 309 310 313 314 314 312 310 311 314 313 312 312 313 313 314 314 313 313 313 315 318 319 318 318 318 319 318 318 317 315 315 314 311 310 310 308 307 305 304 303 302
321 321 320 320 320 320 321 322 322 321 321 322 322 321 321 320 319 324 327 322 319 318 315 313 313 312 312 314 314 312 311 311 311 311 312 312 312 312 311 312 312 312 314 314 314 314 313 310 310 312 313 312 312 311 310 310 310 311 312 312 314 316 315 314 314 314 317 320 318 317 318 318 318 317 316 316 314 314 314 312 310 309 308 306 304 303 302 301
319 319 319 318 318 318 319 321 321 321 321 322 322 321 321 322 322 325 323 318 320 321 317 315 314 312 313 314 315 314 312 312 311 311 313 313 313 313 313 314 314 315 316 316 317 316 315 315 313 313 311 311 312 313 311 310 310 311 312 312 315 318 318 318 318 317 319 320 315 315 317 318 318 316 316 317 314 313 313 312 310 308 307 305 303 302 301 300
318 318 317 317 316 317 317 319 320 320 321 322 321 320 320 322 323 323 321 320 322 320 316 315 313 312 313 314 316 315 313 314 310 309 312 313 314 314 315 316 316 317 316 316 317 316 317 317 315 314 313 311 312 314 315 314 311 311 313 314 316 319 320 321 320 319 320 318 313 313 315 316 316 316 317 316 313 311 311 311 309 307 305 304 303 302 301 300
317 317 317 316 316 316 316 317 318 320 321 321 320 320 321 322 322 321 320 321 320 318 316 315 313 312 313 315 317 315 316 316 311 309 312 313 314 316 315 316 316 315 315 315 316 316 317 317 316 316 315 312 312 314 317 317 314 313 314 315 317 318 319 320 320 319 319 318 314 313 315 317 316 315 315 313 310 309 309 307 306 305 304 303 302 301 300 299
316 315 315 315 315 315 315 316 317 318 319 320 320 321 321 322 321 320 320 320 320 319 317 316 316 316 316 317 316 314 315 317 313 312 313 314 315 316 316 316 316 314 315 316 316 316 317 317 317 315 312 312 314 315 316 316 316 315 314 315 316 317 318 318 319 319 319 318 317 315 316 316 315 314 312 310 309 308 307 306 305 304 303 302 301 300 299 298
315 314 314 314 314 314 314 315 317 317 318 319 320 320 320 320 320 319 320 319 319 319 318 318 319 319 318 318 318 316 315 315 314 314 315 314 314 316 316 317 316 314 315 316 317 316 315 316 317 314 311 311 312 313 314 315 316 314 313 315 315 314 316 317 318 318 318 318 317 316 316 315 315 316 312 309 308 307 306 306 305 304 302 301 300 299 298 297
314 313 313 314 313 313 313 314 317 318 318 319 320 320 320 319 319 319 318 317 316 317 318 319 320 319 318 318 318 318 316 314 314 315 315 315 314 315 316 316 316 314 314 315 316 317 316 316 317 316 315 311 307 309 312 312 313 313 313 314 313 313 314 315 316 317 317 317 317 316 316 314 315 316 313 310 309 307 305 305 304 303 302 301 300 298 297 297
314 313 313 314 313 313 312 313 317 318 318 319 320 320 318 318 318 318 317 316 316 318 318 319 319 318 318 317 317 317 316 315 315 315 315 315 315 315 315 315 315 313 313 313 314 316 316 316 316 316 316 312 307 309 312 311 311 311 312 311 312 315 314 314 316 316 317 317 316 316 316 315 315 315 314 312 310 307 305 304 303 303 302 301 299 298 297 296
311 310 311 313 313 313 312 313 316 318 318 319 319 319 317 317 318 317 317 316 316 318 318 318 318 318 317 317 316 316 316 316 315 315 315 315 315 315 314 314 314 311 311 311 313 314 314 315 316 315 314 313 310 311 314 313 311 309 309 310 312 313 314 314 315 315 316 317 317 317 316 316 316 315 314 313 310 307 306 304 303 302 301 300 299 298 297 296
307 308 310 311 312 312 311 312 315 317 318 318 317 317 317 316 317 316 316 316 316 317 317 317 318 317 317 316 316 315 316 316 315 315 315 314 314 315 314 313 314 312 310 311 312 313 313 315 316 315 313 314 313 313 314 314 313 311 310 311 312 312 312 314 314 314 315 316 317 318 317 316 315 313 312 311 309 308 307 304 303 301 300 299 298 297 296 295
305 307 310 311 311 311 311 312 315 317 317 316 315 315 316 316 316 316 315 315 316 316 316 316 317 317 317 317 316 315 316 317 316 315 316 314 314 315 313 312 314 313 313 313 313 313 314 314 315 315 314 314 315 314 314 314 314 314 313 313 313 313 313 314 314 314 314 315 316 316 316 316 312 311 310 309 308 307 306 304 302 301 299 298 297 296 295 295
305 308 311 311 310 310 311 314 315 316 316 316 315 315 316 316 316 316 316 315 315 316 316 315 316 317 317 317 316 315 316 317 316 316 316 315 314 314 312 311 313 313 313 314 315 314 313 313 314 314 314 314 314 313 314 314 314 314 313 313 313 313 313 314 314 314 314 314 315 314 315 316 311 308 308 308 306 305 305 304 302 300 299 298 296 295 295 295
307 309 310 310 309 310 311 314 315 315 315 315 315 316 316 316 316 315 316 315 315 316 316 315 315 316 316 315 315 315 315 315 315 315 315 315 314 313 311 311 312 313 313 313 314 313 312 312 313 313 313 312 312 312 313 313 313 313 313 313 313 313 312 312 312 312 312 313 314 313 314 316 311 306 306 306 305 304 304 303 302 300 298 297 296 295 295 294
308 309 310 310 309 310 312 313 314 315 315 314 315 315 315 315 316 315 315 314 314 314 314 315 315 314 314 314 314 314 314 313 314 314 313 314 313 311 309 310 311 312 313 312 313 312 311 312 313 313 313 313 312 312 313 312 312 312 312 312 312 312 312 311 311 312 312 312 313 313 313 314 310 306 306 305 304 304 303 302 301 300 299 297 296 296 295 294
307 307 309 310 310 311 313 313 313 313 314 314 314 314 313 314 315 314 314 314 314 314 313 314 314 314 313 313 313 313 313 313 313 313 312 313 313 310 308 309 310 311 311 310 310 310 310 311 312 311 313 313 312 311 312 312 312 311 310 311 311 311 312 311 311 312 312 313 313 312 312 312 310 308 308 307 305 303 302 301 300 299 298 297 296 295 294 293
305 305 309 310 310 310 312 312 312 312 312 313 313 313 312 312 313 314 314 313 313 313 313 313 313 313 312 312 312 312 312 312 311 312 312 312 312 310 308 308 310 310 308 307 308 309 309 310 310 310 311 311 310 310 309 310 310 309 310 310 310 310 311 311 310 310 311 311 310 310 310 310 310 309 308 308 307 305 302 301 300 299 298 297 296 295 294 293
302 303 308 310 310 310 310 311 312 312 312 312 312 312 311 311 311 312 312 312 312 312 312 312 312 311 311 311 310 310 310 310 310 310 311 311 311 310 308 308 308 307 306 307 307 308 308 308 309 309 310 309 309 308 308 308 308 308 308 309 308 309 310 309 309 308 308 308 308 308 308 308 308 307 306 307 307 306 304 303 301 299 298 296 295 294 293 293
300 302 306 308 309 310 310 310 310 311 311 311 311 310 310 310 309 310 311 311 311 311 310 310 310 310 310 309 309 309 309 309 309 309 310 310 310 309 308 308 306 304 305 307 306 307 308 307 307 307 308 307 307 306 306 306 306 306 306 306 306 306 307 307 307 306 306 306 306 305 305 305 305 304 304 305 305 304 303 302 300 298 297 296 295 294 294 293
299 300 302 305 306 306 306 307 309 310 310 310 310 309 309 309 308 309 310 310 310 310 309 308 308 309 309 309 310 309 309 309 308 309 309 309 308 307 306 307 305 304 305 305 305 306 306 305 305 305 305 306 305 305 305 305 305 304 304 304 304 304 304 304 304 304 304 304 304 303 303 303 303 303 303 303 302 301 300 299 297 296 296 296 295 295 294 294
299 299 301 302 303 302 302 304 308 309 309 309 309 308 308 307 307 308 309 309 308 309 309 308 308 308 306 307 308 308 308 307 306 306 306 306 305 305 304 305 304 303 303 303 304 305 304 303 304 303 303 305 304 304 305 304 304 304 304 304 303 303 304 303 303 303 303 303 303 303 303 303 302 302 300 299 299 298 297 296 296 295 295 294 294 294 294 294
297 299 300 301 302 302 301 303 306 307 307 308 308 307 307 307 306 306 307 306 306 307 308 307 307 305 304 305 306 306 307 306 304 304 304 303 303 303 303 303 303 302 302 302 302 303 303 303 303 302 303 304 303 303 303 302 301 301 302 302 302 302 302 302 302 302 302 302 302 302 302 302 301 300 298 297 297 296 296 295 295 294 294 293 293 293 293 293
295 296 298 300 302 302 301 302 304 305 306 307 307 307 306 306 306 307 307 304 303 304 305 305 305 305 304 304 304 304 304 303 302 301 301 300 300 301 301 301 301 302 302 302 302 302 302 302 302 302 302 303 302 302 300 299 299 300 300 300 300 301 301 301 301 301 302 302 302 302 301 300 299 299 298 297 295 294 294 294 293 293 292 292 292 292 292 292
Wind_Speed
1 1 1 1 1 1 1 1 1 1 1 1 2 2 2 3 3 3 3 4 4 5 5 5 6 7 7 9 9 10 12 14 15 16 15 10 7 6 4 4 3 4 5 6 7 6 5 4 5 5 4 5 5 5 6 6 5 5 4 5 5 6 5 2 4 6 5 7 7 5 4 7 10 8 6 7 11 15 18 20 19 18 21 25 24 20 21 21
2 2 2 2 2 2 2 3 2 2 2 3 3 3 3 4 4 4 5 5 6 6 6 7 8 8 9 10 10 12 13 15 17 20 17 7 4 3 3 4 3 3 5 6 7 6 5 6 6 6 5 6 6 6 6 6 7 7 5 6 6 7 7 4 7 10 8 9 11 11 10 10 12 12 8 7 11 14 16 18 18 19 21 23 23 20 19 19
4 4 4 3 3 3 4 4 4 4 4 5 5 5 5 5 5 5 6 6 7 7 8 9 9 10 11 11 12 13 14 17 19 17 7 6 3 3 4 5 4 3 4 6 6 7 7 6 7 7 7 7 7 6 6 6 7 9 7 6 7 8 9 7 9 11 12 12 12 13 13 13 14 15 11 9 13 13 14 16 17 19 17 16 16 16 16 18
6 6 5 5 5 5 5 5 6 6 6 6 6 7 7 7 8 8 8 8 9 9 9 10 11 12 12 13 13 13 16 17 12 6 6 8 2 9 9 6 5 3 3 5 6 9 9 7 7 8 8 8 8 7 7 8 6 6 7 8 9 8 8 10 12 13 12 11 12 14 14 15 15 14 12 11 11 10 14 15 16 19 18 16 16 15 15 16
7 7 7 7 7 7 7 7 7 7 7 8 8 8 9 9 9 9 10 10 10 11 11 11 12 13 13 13 14 13 14 9 1 2 7 5 8 13 13 7 5 3 2 4 6 8 9 7 7 7 8 9 9 7 10 13 9 5 9 13 15 12 10 12 14 11 8 8 11 14 13 14 13 12 14 14 12 12 16 16 18 24 24 22 20 18 16 16
8 8 8 8 8 8 8 8 9 9 9 9 9 10 10 10 11 11 11 11 12 12 12 13 13 14 14 14 14 12 8 6 4 1 5 8 13 15 13 8 6 5 3 3 6 7 8 8 8 9 9 9 10 9 10 11 9 7 11 15 17 16 13 13 14 9 8 11 14 14 14 16 15 16 19 18 18 21 23 22 24 29 28 24 21 18 18 20
9 9 9 9 9 9 9 10 10 10 10 11 11 11 12 12 12 12 12 13 13 13 14 14 15 15 15 15 15 11 7 11 14 11 12 15 16 16 13 8 7 6 5 5 6 7 9 9 10 10 10 9 10 12 11 8 9 8 11 14 15 15 14 15 15 12 11 14 17 16 16 18 18 18 21 22 23 25 26 26 27 29 26 23 20 19 18 21
10 10 10 10 10 11 11 11 11 12 12 12 13 13 14 14 14 14 14 14 14 15 15 15 16 16 16 16 13 10 10 15 17 14 14 15 14 13 10 8 8 8 7 6 7 8 9 10 12 10 9 10 9 9 7 6 10 12 13 15 15 13 13 15 16 15 14 15 16 16 17 22 23 21 24 28 28 27 27 26 26 25 23 21 20 20 19 21
12 12 12 12 12 13 13 13 13 14 14 14 15 15 16 16 16 16 16 17 16 16 16 16 17 16 17 16 10 8 12 15 14 11 10 9 10 10 9 9 10 10 8 8 8 9 9 10 12 9 9 12 9 8 7 7 8 7 10 13 13 13 14 16 18 18 17 17 14 13 18 23 23 18 19 25 25 21 19 20 20 20 21 20 20 20 21 22
13 13 13 14 14 14 14 14 15 15 15 16 16 16 17 17 17 17 17 18 18 18 17 17 17 16 17 16 9 8 11 12 10 10 9 10 10 11 12 12 12 11 10 10 11 11 11 10 9 9 11 12 10 10 10 8 5 6 9 13 15 18 20 20 21 21 20 19 17 14 16 22 20 11 12 18 16 12 12 14 15 17 20 22 21 21 21 22
14 14 14 14 14 14 15 15 15 15 16 16 17 17 17 17 17 17 17 17 17 17 17 17 17 17 17 15 11 10 12 13 14 15 15 15 16 16 15 14 13 12 10 11 12 11 12 11 11 9 8 6 7 9 9 8 8 10 12 14 18 21 21 21 22 22 19 13 12 13 14 20 18 10 16 24 20 16 16 16 16 17 21 23 22 22 22 22
14 14 14 14 13 14 14 14 14 15 15 15 16 16 16 17 17 16 16 16 16 16 16 16 16 16 17 16 18 19 18 18 17 16 17 18 19 18 16 14 14 13 11 12 12 12 13 14 13 11 8 6 7 7 4 3 7 10 10 12 16 16 17 21 20 17 14 7 4 6 10 13 13 13 22 26 20 16 16 18 19 20 22 23 22 22 22 23
13 13 13 13 12 12 12 12 13 13 14 14 15 15 15 16 16 15 15 15 15 15 14 15 15 15 14 14 18 19 16 15 15 15 17 18 18 17 15 14 14 14 14 13 13 14 14 14 12 12 11 9 9 7 4 4 4 9 10 9 11 12 11 13 11 6 6 6 7 5 7 7 10 15 18 16 12 11 14 20 24 25 25 24 23 22 23 24
12 12 12 11 11 11 11 11 11 12 12 13 14 14 14 15 15 15 14 14 14 13 13 13 14 13 12 14 17 17 16 15 15 16 16 17 18 18 15 14 14 14 15 16 17 16 14 13 12 11 12 12 9 8 8 8 6 8 10 6 6 8 6 5 5 7 4 5 10 8 7 7 11 16 15 11 9 10 14 23 28 28 27 25 23 22 24 24
11 11 10 10 10 10 10 10 10 10 11 12 13 13 14 14 14 13 13 13 12 12 12 13 13 11 10 15 17 15 13 12 12 12 11 14 15 14 14 13 12 13 14 15 15 14 13 11 10 9 9 10 9 8 8 7 6 8 8 6 6 7 7 7 5 9 7 4 11 10 6 7 9 12 15 14 14 15 18 25 29 28 27 26 24 21 21 22
10 9 9 9 9 9 9 8 9 9 10 11 12 12 12 13 13 13 13 12 12 12 11 11 11 9 7 11 14 12 11 9 10 10 10 12 12 11 12 10 9 11 12 13 13 12 10 8 8 9 8 7 7 7 7 6 6 7 7 7 8 8 9 8 5 6 6 3 10 12 7 9 8 12 20 22 22 22 22 27 30 28 27 27 23 20 20 20
10 9 8 8 8 8 8 8 8 8 10 10 10 11 11 12 12 12 12 11 11 9 9 8 7 7 9 13 13 10 10 10 9 9 9 9 9 9 9 7 7 9 9 9 9 8 8 8 6 7 8 8 6 5 5 6 7 6 7 8 9 10 10 8 8 6 3 5 8 11 10 12 12 14 21 24 23 21 23 27 28 26 25 25 22 20 19 17
10 9 8 8 8 8 8 8 8 8 9 10 10 11 12 12 12 12 11 10 7 5 6 7 5 3 8 13 11 6 6 8 7 8 9 8 7 7 7 7 6 7 7 6 7 9 8 8 5 4 7 8 6 5 6 8 9 10 9 8 9 11 11 12 11 7 4 9 11 11 12 15 15 15 17 22 24 23 25 27 25 23 24 25 21 16 12 11
10 10 9 8 8 9 9 9 9 9 9 10 11 11 12 11 11 10 8 6 4 3 3 5 9 5 6 6 9 9 10 11 10 12 12 9 7 6 7 7 7 9 8 5 7 10 8 6 5 5 7 8 9 10 11 13 14 15 13 10 12 12 12 14 14 12 12 12 11 12 14 15 15 14 15 20 25 26 28 26 22 22 23 21 14 9 7 8
11 11 10 10 10 10 11 10 10 10 10 10 10 10 9 8 7 5 3 6 10 10 9 8 11 14 14 11 11 14 15 14 13 13 12 8 5 6 7 7 9 8 7 5 6 8 7 6 6 7 9 11 12 12 14 15 15 16 13 12 14 13 13 13 14 14 10 6 8 12 14 15 15 15 17 22 25 25 25 22 21 21 18 12 6 6 8 8
13 13 12 12 12 12 12 11 11 11 11 11 10 7 5 5 4 4 7 11 14 15 17 17 17 19 18 15 16 18 15 12 12 12 10 6 6 7 8 9 7 6 6 5 4 5 5 7 7 10 14 15 12 9 10 12 14 15 12 12 12 11 12 14 15 15 7 3 7 11 14 15 16 17 19 21 19 18 18 18 18 16 11 7 5 7 8 10
14 14 14 14 14 13 12 11 12 12 11 11 8 5 4 5 4 6 9 10 14 18 22 22 22 24 24 22 25 25 17 11 10 10 9 7 9 7 7 9 6 5 6 6 3 3 6 8 11 15 15 14 11 7 9 12 13 12 10 10 10 9 12 13 11 6 2 1 7 12 13 13 16 20 20 17 13 13 18 19 15 9 7 5 6 8 11 14
15 15 16 16 15 14 12 11 11 11 10 9 7 5 6 6 6 8 7 7 13 18 20 20 21 22 20 19 23 23 16 13 11 8 7 9 10 8 7 7 8 6 6 8 8 6 6 7 10 15 14 12 12 9 9 11 10 9 8 8 9 10 10 9 5 1 2 6 9 12 11 11 14 15 13 10 7 13 18 11 6 8 8 9 12 15 16 17
17 16 17 16 15 14 13 10 10 10 9 7 6 6 6 6 7 9 7 7 8 10 16 19 16 15 12 12 15 13 11 12 8 6 9 10 8 8 8 8 9 8 8 11 12 12 12 7 3 7 10 10 12 10 10 10 8 9 9 9 11 11 12 11 9 8 10 9 6 8 9 8 5 5 5 2 6 13 6 9 14 15 13 14 18 20 19 19
18 17 16 15 14 14 13 11 9 9 7 6 6 5 6 6 7 9 6 6 6 6 12 11 6 7 8 8 9 7 7 8 8 9 11 12 10 6 4 7 8 8 10 13 13 11 12 6 2 4 6 7 9 10 11 9 7 8 9 10 12 12 12 13 11 9 8 5 1 4 8 5 1 6 7 3 9 8 9 17 16 17 16 17 19 18 18 19
18 17 16 14 13 13 12 10 8 7 5 5 5 5 5 5 5 7 5 4 5 3 5 4 2 3 2 2 2 5 5 5 8 11 12 14 13 6 2 4 5 6 5 5 7 6 5 1 2 4 7 6 7 10 12 10 7 7 3 3 6 9 10 10 9 6 5 6 1 2 5 6 5 8 5 5 12 2 14 14 14 17 16 16 17 16 17 18
20 19 18 16 14 13 10 8 8 6 4 5 4 4 4 3 3 6 4 5 5 2 4 2 2 2 1 1 4 5 2 2 4 6 10 13 11 6 5 4 3 3 1 0 4 2 4 3 1 3 6 6 7 8 8 8 8 4 3 4 4 5 8 6 6 5 5 9 7 4 6 7 7 4 4 8 11 3 13 12 13 15 15 16 16 16 17 18
22 21 19 16 15 13 11 11 11 8 6 7 4 3 2 1 2 3 2 6 3 3 3 2 2 2 2 3 6 3 2 1 2 2 9 12 9 5 7 7 5 3 4 4 5 0 3 4 3 5 6 6 6 3 1 5 7 2 5 4 4 4 5 4 5 7 6 8 7 6 7 6 7 2 4 6 6 5 11 12 12 12 13 14 15 17 16 16
21 20 18 16 15 14 14 14 14 11 10 8 5 3 1 1 2 2 2 4 1 2 2 2 2 3 4 4 5 4 0 0 1 1 7 9 9 5 3 5 6 5 5 8 8 4 1 2 2 4 5 5 3 3 4 3 4 1 3 1 1 2 4 4 6 7 6 7 8 6 9 5 7 3 3 2 3 5 9 11 11 12 13 12 14 15 14 15
17 16 16 15 14 14 14 15 15 13 11 8 6 4 1 1 0 2 6 4 1 1 2 3 2 3 5 5 5 5 3 1 3 4 5 4 7 6 3 2 3 5 6 8 11 10 3 4 1 4 6 2 4 4 4 1 0 1 1 3 4 6 5 5 6 4 5 8 8 6 12 8 5 2 2 1 1 2 7 10 10 12 13 12 13 13 13 15
15 15 14 14 14 14 14 14 14 12 10 8 6 5 3 1 1 5 6 1 1 1 3 3 2 2 4 3 2 4 3 2 4 5 5 3 5 6 3 2 3 4 5 6 8 9 6 4 2 4 5 2 3 2 1 3 1 1 3 4 5 6 4 4 5 3 6 7 4 1 8 10 7 2 1 3 6 5 4 8 11 12 12 12 13 13 12 13
15 14 13 12 14 14 13 12 11 11 11 9 7 6 4 2 4 6 3 2 1 2 2 1 1 2 2 1 1 2 1 2 4 3 2 2 3 5 6 5 2 3 6 4 2 3 5 7 7 5 4 7 5 2 2 3 3 3 3 3 5 5 4 5 5 4 7 4 2 4 2 7 9 6 8 6 7 8 5 8 12 14 14 14 13 12 11 13
14 13 12 12 13 13 13 11 9 8 9 10 9 5 2 4 6 5 5 4 1 1 2 3 2 1 2 1 1 1 0 0 4 3 1 1 3 5 8 8 3 3 6 5 6 5 3 2 7 6 2 8 10 4 3 3 4 6 4 4 4 5 6 8 7 7 8 3 3 3 0 4 7 7 10 8 7 12 11 14 16 15 15 15 13 11 11 15
15 13 13 13 13 12 12 11 10 8 7 8 8 4 3 7 3 2 7 8 2 2 2 3 2 2 2 2 1 2 1 0 3 2 1 2 3 4 7 8 7 4 4 4 6 6 6 4 5 6 2 9 12 8 5 2 3 7 5 4 5 5 7 7 6 7 9 6 2 2 1 4 5 2 3 6 13 15 15 18 17 16 15 14 13 11 12 14
15 14 14 14 13 13 12 12 12 10 9 8 6 3 7 8 3 2 6 7 3 2 2 1 2 1 3 3 1 2 2 1 2 2 1 2 3 4 6 4 6 5 1 2 3 2 7 7 2 3 1 6 9 5 2 2 3 4 2 3 5 4 5 6 6 7 8 8 6 5 4 5 6 2 10 13 14 15 15 16 15 13 13 12 12 12 12 12
15 14 14 15 15 14 13 13 12 12 12 9 5 6 8 5 4 4 3 4 4 2 2 1 2 2 5 4 3 3 2 1 0 1 1 2 3 5 6 2 4 7 4 2 2 2 6 6 3 3 1 3 2 2 1 2 3 1 2 3 2 2 3 5 7 7 7 9 7 6 8 8 8 5 9 13 12 11 11 11 12 11 11 11 11 10 10 10
15 15 17 18 17 14 13 13 12 14 14 10 7 8 4 3 6 5 1 1 1 2 1 3 2 2 5 5 5 5 4 2 2 2 2 3 2 4 6 3 3 7 6 2 2 2 4 7 3 3 5 2 2 4 1 2 2 1 2 1 2 1 1 3 7 7 8 11 7 7 12 11 9 5 5 11 10 9 8 8 10 10 9 10 10 9 8 8
16 17 20 22 18 14 14 15 14 16 14 9 10 10 4 3 8 6 2 2 1 2 1 5 3 1 4 6 7 2 5 4 4 4 4 4 3 3 4 3 2 2 3 2 2 1 1 6 5 3 3 1 3 2 3 2 0 1 1 2 1 3 4 5 6 5 8 11 8 9 13 11 9 9 4 6 11 10 7 7 7 7 8 8 8 8 7 7
16 14 17 20 17 16 17 17 16 16 11 7 10 9 4 5 7 7 5 3 1 2 2 7 5 3 5 8 8 3 5 7 6 5 5 5 5 3 1 2 2 3 2 1 3 1 0 4 4 1 1 2 2 3 5 3 1 1 1 2 2 2 4 5 4 2 6 9 8 8 10 8 7 6 4 3 11 11 8 7 5 6 6 6 6 6 5 6
11 8 10 13 13 17 21 20 19 15 9 7 8 5 3 4 6 7 9 7 3 3 4 6 8 8 9 11 12 8 6 7 8 8 6 6 7 2 3 3 1 3 3 0 2 2 0 4 6 2 1 2 3 4 5 6 5 3 4 5 4 3 2 3 3 3 5 8 7 8 9 7 4 3 5 8 9 8 8 8 6 5 6 5 5 4 4 5
9 5 6 9 12 20 25 21 16 13 8 7 7 7 7 4 2 4 9 10 7 4 4 4 7 8 8 9 11 8 5 5 7 8 7 7 10 5 3 5 3 3 2 1 2 2 1 4 7 7 5 6 8 7 6 8 8 6 5 5 7 5 3 5 7 6 5 6 7 8 10 7 1 4 4 7 7 6 8 8 7 6 6 5 4 4 5 6
11 4 5 10 16 26 28 16 11 11 9 9 9 9 8 4 4 6 8 10 9 7 5 4 5 6 6 8 9 8 6 5 7 8 6 8 12 7 2 4 3 2 2 4 3 1 1 3 6 8 8 10 14 13 5 3 6 6 6 8 9 7 5 8 9 6 5 6 4 6 10 6 1 3 4 6 7 7 8 8 8 7 5 4 3 4 5 6
11 6 6 10 18 29 25 10 9 10 8 9 9 9 9 6 7 9 9 10 9 8 7 6 7 8 9 9 9 9 8 5 6 9 8 9 9 2 3 2 1 1 2 5 4 0 1 3 6 7 7 9 14 11 1 3 2 5 6 6 5 5 5 6 6 5 5 5 6 8 10 4 2 3 4 7 7 7 6 6 8 7 6 5 4 3 3 3
8 7 7 10 19 28 19 7 9 10 10 11 10 11 13 11 10 11 10 10 9 8 7 7 9 10 9 8 8 9 7 5 6 7 8 8 4 3 4 3 2 2 2 3 2 1 2 4 5 5 5 6 8 8 2 2 1 1 3 3 3 4 6 5 4 4 4 6 9 9 7 3 1 1 3 6 6 6 6 7 7 7 7 6 5 3 2 1
7 7 7 12 23 28 18 8 7 9 11 13 13 13 14 11 10 11 12 11 10 9 7 5 6 7 7 7 7 7 7 7 5 4 5 6 2 3 3 3 3 1 2 3 3 1 4 5 4 5 6 6 7 7 4 1 1 1 2 4 5 7 7 5 5 6 5 5 7 7 6 4 1 3 6 6 6 6 6 7 7 6 7 6 5 3 2 1
6 5 6 11 20 24 19 11 8 8 9 12 11 11 14 12 8 9 10 12 13 13 11 8 6 6 7 9 9 8 10 10 8 6 5 6 3 1 3 3 4 3 3 3 3 1 4 6 7 10 10 9 10 11 9 8 7 7 8 9 11 10 9 7 7 8 7 6 6 8 10 10 9 12 15 8 5 6 6 8 8 8 7 6 5 4 4 3
5 4 6 8 10 14 14 11 11 9 8 10 7 7 13 15 9 7 8 8 8 10 11 10 9 9 8 10 10 10 11 11 10 10 9 8 6 2 2 3 3 2 3 3 2 1 4 7 10 12 13 13 15 16 16 15 14 15 14 14 15 14 12 10 11 12 11 10 9 9 11 14 13 14 17 13 7 6 6 8 7 6 6 6 5 5 6 6
4 1 5 9 7 7 8 8 11 12 12 11 7 7 12 14 12 9 7 5 3 5 7 7 9 12 12 11 9 8 8 9 9 10 9 7 6 3 2 2 3 2 2 3 3 2 4 8 11 12 14 16 17 18 18 17 15 15 16 17 17 18 17 16 15 15 13 12 13 15 18 19 16 17 20 17 8 2 4 6 4 4 4 5 5 6 7 7
5 2 3 9 6 2 2 3 8 14 15 12 8 10 13 13 13 8 3 3 5 6 8 10 8 6 6 7 6 5 7 6 5 4 2 1 1 1 3 3 2 3 3 3 4 3 4 7 8 9 11 13 15 17 17 16 16 17 18 19 20 22 22 20 18 19 19 18 20 22 24 22 19 19 17 8 3 4 5 4 3 3 3 4 5 7 8 9
5 2 3 6 3 2 2 3 7 10 12 11 10 10 11 13 14 8 2 2 6 7 9 11 6 3 3 1 4 5 4 1 1 2 2 2 2 2 3 4 2 2 3 2 3 4 6 6 1 2 7 10 12 15 13 12 13 14 15 17 20 22 22 19 19 20 20 20 21 23 23 21 15 7 2 4 6 4 2 2 2 3 3 4 6 8 9 10
9 6 5 4 3 4 4 3 7 8 8 10 10 9 10 14 15 11 4 1 3 6 7 6 3 4 3 3 5 7 4 1 0 2 1 2 4 3 2 2 1 0 2 2 1 1 5 5 1 1 7 9 9 11 12 9 9 12 14 17 20 20 18 17 17 17 17 18 20 20 18 13 4 3 5 4 4 2 1 2 3 4 4 5 8 9 10 11
11 8 7 4 3 6 6 3 7 9 7 8 10 7 7 6 5 8 7 3 4 1 3 2 2 3 5 7 5 4 2 2 1 1 1 1 2 3 3 3 2 3 3 2 1 1 3 4 4 4 6 5 7 9 7 4 6 9 11 14 17 17 16 17 17 18 20 19 16 13 9 3 1 2 1 1 2 2 3 4 5 6 6 7 9 11 12 12
Wind_Direction
245 262 293 327 326 320 323 321 317 297 268 252 239 235 242 240 244 248 249 259 263 274 282 288 295 300 305 310 312 315 316 315 314 305 300 292 271 280 297 300 283 255 243 235 240 239 236 224 218 216 204 216 224 228 233 230 213 213 234 247 253 260 274 272 265 288 294 300 300 283 271 280 288 273 251 258 257 261 270 271 263 252 252 265 278 276 277 285
272 274 282 285 287 291 291 293 292 292 290 282 273 266 264 257 257 257 260 263 267 275 279 287 292 296 302 306 311 313 315 315 308 302 297 271 231 265 289 299 291 252 238 239 246 229 214 213 213 211 205 223 229 224 239 226 204 220 246 261 253 263 283 289 282 290 287 287 294 295 290 279 278 282 277 267 271 273 274 274 271 263 256 261 274 276 276 283
280 281 285 284 286 288 287 290 288 288 287 287 287 285 283 280 278 276 277 275 277 282 284 290 294 298 301 305 310 312 318 315 305 303 285 174 141 354 317 291 271 261 231 236 241 216 217 224 212 212 221 239 230 212 236 212 203 230 240 258 258 265 276 269 277 282 282 288 291 290 291 282 275 279 273 261 274 277 271 272 275 276 273 267 272 279 275 273
280 283 286 286 288 289 288 289 287 288 287 287 287 287 288 287 288 288 287 287 288 289 291 293 295 299 301 305 308 313 321 312 298 287 175 159 347 330 324 299 258 254 222 229 227 219 229 228 214 220 234 250 233 215 234 209 197 231 222 247 269 282 280 267 282 285 279 288 287 287 289 282 281 279 263 256 272 271 264 270 274 280 289 291 289 293 285 268
279 282 285 286 287 288 288 288 287 288 287 287 287 287 287 286 288 288 288 289 290 291 293 293 295 297 299 302 303 314 323 313 317 138 179 199 303 308 314 304 248 236 229 226 229 232 234 221 214 224 234 253 240 222 241 223 211 247 234 248 266 274 276 275 288 287 277 286 282 280 279 282 288 278 260 255 258 259 268 280 285 286 291 294 292 291 286 269
277 280 282 284 285 285 286 285 284 285 284 284 282 281 282 283 284 284 285 286 287 289 290 291 293 293 295 297 298 307 310 293 316 292 235 276 292 295 302 291 244 236 245 234 238 236 225 213 213 224 233 251 247 237 252 228 207 249 255 254 263 268 272 279 289 283 271 278 275 276 281 287 286 277 273 264 256 261 270 278 282 286 289 290 289 284 275 271
272 275 277 279 281 281 280 280 280 281 280 279 278 277 277 277 278 278 279 280 281 283 285 287 289 290 293 294 297 299 263 266 285 279 279 287 284 288 293 274 235 234 251 246 239 227 219 217 220 238 248 252 259 253 256 237 210 241 267 267 271 272 272 277 284 279 268 268 271 278 284 281 275 277 283 276 268 270 273 274 275 283 289 288 284 278 271 273
270 271 273 274 275 276 275 277 279 278 278 277 278 277 277 277 276 277 277 277 278 279 281 283 285 288 292 293 299 293 247 259 282 285 286 284 276 280 277 250 228 238 261 248 230 227 226 228 233 245 256 258 269 261 252 247 238 241 255 269 275 272 271 276 278 273 264 263 268 275 273 269 269 277 282 278 277 276 272 271 273 278 283 284 280 277 274 274
270 271 271 272 273 274 275 277 277 277 278 278 279 278 279 279 278 280 279 279 279 279 281 282 284 286 289 292 292 280 258 264 284 288 284 278 272 269 261 250 238 242 258 243 225 227 229 239 246 245 264 277 277 268 254 245 255 255 259 277 286 281 278 277 276 268 261 260 262 264 265 269 276 281 275 271 276 278 268 266 273 278 280 283 280 278 280 279
271 271 272 273 274 276 276 278 278 278 279 278 279 279 279 279 280 281 280 281 280 280 281 280 282 283 285 287 274 263 267 268 277 281 278 273 268 266 265 261 247 245 249 239 229 228 232 249 258 250 269 282 272 265 252 239 279 308 292 291 287 282 280 275 271 266 261 262 258 252 264 275 281 282 268 269 274 274 270 269 275 281 283 285 283 279 280 277
270 271 273 274 275 277 277 279 279 279 280 280 281 281 282 282 282 282 280 281 280 279 279 277 279 277 279 277 252 248 268 270 276 281 278 273 269 266 265 259 249 245 238 237 240 237 236 247 253 251 264 275 270 265 244 246 288 296 298 297 283 278 277 270 266 263 259 260 251 245 261 275 275 253 249 268 277 273 275 281 282 283 284 286 285 281 277 272
269 270 272 274 276 278 279 280 281 282 283 283 285 285 286 286 285 286 284 283 282 281 279 276 275 272 275 269 250 255 269 272 277 279 274 273 271 267 262 254 247 243 236 235 247 245 238 244 245 242 255 278 287 279 243 263 290 286 289 289 284 281 276 269 263 257 251 238 179 224 260 267 262 243 244 261 276 274 274 284 290 292 288 286 284 281 276 272
267 269 270 272 274 276 278 281 283 285 286 286 287 287 288 288 288 288 287 286 285 283 281 277 274 272 271 265 260 266 272 271 273 273 272 271 270 267 261 252 246 244 241 234 241 244 239 243 240 239 255 266 274 278 286 293 270 279 279 269 284 287 280 272 256 226 229 206 158 195 267 273 271 271 270 278 289 283 283 291 294 293 289 285 283 280 277 276
265 266 268 270 271 274 276 278 281 284 286 287 287 288 289 289 289 289 288 287 284 283 279 274 272 270 263 263 270 273 272 272 272 270 270 268 267 268 263 255 249 245 242 238 241 245 243 239 231 242 253 248 265 289 283 269 250 270 277 255 265 275 280 277 206 171 198 183 169 204 263 276 279 286 293 306 305 290 288 290 291 289 288 286 283 280 279 281
259 261 264 266 268 270 272 275 279 281 284 286 287 289 290 290 291 290 289 286 283 280 275 270 268 263 262 269 273 274 273 270 267 266 263 261 264 267 263 258 253 246 241 240 240 242 244 233 221 239 250 240 256 283 274 265 255 259 270 262 251 256 279 286 213 194 230 191 174 204 266 279 276 292 298 302 298 291 287 286 286 286 287 287 286 285 283 284
250 252 253 258 262 264 268 272 276 281 284 287 290 293 294 295 295 293 291 287 283 277 270 269 260 248 257 271 270 272 273 266 267 270 261 259 258 257 262 259 247 241 235 234 236 235 231 216 216 235 247 246 245 255 265 269 262 247 245 261 267 272 286 293 284 250 249 184 186 211 260 284 280 295 296 295 293 288 285 283 282 284 285 286 288 289 287 288
241 242 242 246 251 257 263 266 274 282 287 291 296 299 302 304 301 298 294 288 284 276 265 260 247 243 252 259 265 271 272 273 273 270 264 263 256 248 252 243 230 232 225 223 221 210 202 196 209 233 233 242 246 247 261 261 266 265 249 255 264 274 288 293 302 301 184 183 226 231 249 272 280 288 289 290 290 286 279 275 277 284 287 286 289 290 291 297
239 236 236 240 246 256 262 267 276 282 290 299 302 307 311 312 308 301 294 289 283 273 259 231 197 231 250 245 254 256 267 281 277 273 273 269 260 243 225 217 208 195 184 188 191 181 185 193 203 236 230 232 235 227 242 254 271 288 284 282 282 283 294 292 292 303 257 255 273 271 268 280 289 292 290 289 290 286 276 273 278 286 285 285 289 294 302 314
240 239 239 243 252 261 266 273 279 283 294 301 308 315 318 320 312 298 288 273 244 244 273 199 189 244 288 263 261 266 278 286 280 277 274 266 257 228 205 197 176 174 177 175 179 179 185 191 194 228 238 235 228 219 235 256 273 287 291 291 291 288 287 286 284 289 296 295 291 287 286 292 297 297 292 285 283 280 277 280 287 284 280 284 294 312 329 339
240 244 247 250 256 264 271 278 284 291 299 304 318 325 328 332 313 291 290 269 253 259 274 250 232 261 284 286 278 280 285 285 280 273 267 260 236 194 178 167 166 190 211 200 175 171 190 209 203 220 240 251 252 244 249 262 275 285 289 282 281 282 279 281 282 285 305 316 288 290 294 297 301 296 286 281 278 277 280 284 282 276 281 295 320 351 354 8
240 245 250 254 257 264 273 283 289 297 306 315 332 339 341 345 314 306 321 293 274 269 271 270 260 259 266 269 268 271 278 286 282 270 261 240 185 176 171 168 181 210 209 184 138 134 190 224 224 231 245 259 272 281 276 276 278 279 280 278 277 277 277 279 283 290 319 323 283 295 297 299 302 292 283 279 278 280 280 275 271 277 302 329 355 5 22 48
247 251 254 257 260 265 272 284 292 297 309 321 338 347 334 338 316 307 316 295 281 278 275 273 265 259 259 258 258 260 263 271 270 261 254 201 175 189 178 178 212 222 172 158 150 174 212 229 231 236 248 260 268 281 280 274 274 274 271 274 275 274 280 283 282 291 14 287 290 304 302 297 288 281 282 283 283 279 269 266 277 308 346 7 28 42 60 65
252 257 260 262 264 269 272 283 294 298 307 316 327 332 325 330 319 313 310 283 281 283 275 265 258 258 258 253 257 258 251 251 251 240 222 181 177 197 191 195 231 235 181 191 224 236 240 237 231 239 250 258 258 260 265 267 264 259 258 266 271 273 279 287 285 314 314 281 289 301 298 286 274 265 270 276 270 267 266 276 340 27 43 59 64 66 68 63
255 258 263 267 270 276 282 289 298 299 302 305 309 320 328 324 319 326 313 269 274 275 263 256 247 251 251 246 257 254 236 240 242 222 203 188 182 190 204 222 236 240 222 224 236 243 256 268 222 236 249 251 258 261 256 260 262 255 252 254 263 271 277 285 297 311 304 283 282 302 294 289 285 258 259 249 246 261 285 49 58 63 69 75 72 67 65 60
258 261 267 271 275 282 288 296 299 295 293 294 300 319 332 325 326 339 327 267 262 245 247 252 239 245 249 249 256 238 223 229 222 213 200 192 189 181 209 223 226 248 241 236 245 251 263 276 130 208 239 236 249 259 252 252 268 265 253 250 261 275 283 289 300 312 306 280 91 10 313 305 336 273 278 283 267 270 73 73 69 69 68 69 66 60 58 57
261 268 274 275 281 287 293 298 290 284 295 296 299 318 327 330 339 348 342 272 268 212 200 215 186 209 234 262 215 183 203 219 215 219 204 192 192 190 246 198 200 267 274 248 259 265 263 266 108 222 238 233 236 252 253 247 258 267 263 272 274 280 284 290 300 305 295 287 336 49 303 288 282 279 261 249 269 274 85 78 79 79 73 68 63 57 52 54
263 268 272 273 277 282 283 277 266 272 282 276 289 316 315 327 356 0 346 272 273 124 124 149 174 211 226 194 172 179 200 152 175 206 198 196 193 198 243 205 184 246 136 276 275 246 210 198 110 217 230 233 230 249 252 226 240 270 21 5 325 301 294 299 301 286 278 293 287 218 228 267 293 296 193 239 266 125 93 84 87 83 78 79 72 65 56 54
260 260 262 263 265 266 260 253 254 257 244 245 270 295 299 330 8 13 311 276 291 94 106 117 139 207 189 161 171 180 3 104 140 174 187 196 187 185 235 239 259 250 166 207 252 145 138 186 191 190 207 228 227 264 331 198 232 311 45 5 348 332 308 304 292 282 282 294 285 204 194 258 293 281 190 246 261 140 106 98 102 90 81 84 78 73 66 60
253 253 255 256 257 255 250 248 247 244 238 240 248 253 255 61 21 14 254 263 328 97 114 124 140 158 146 158 185 195 298 131 8 109 171 189 185 183 246 255 277 274 209 221 247 271 87 135 208 199 209 238 229 31 33 216 239 38 72 356 335 265 269 270 267 279 280 274 273 219 186 241 297 273 204 225 218 162 121 108 109 100 89 80 74 74 71 69
252 253 255 255 252 249 247 246 244 244 244 241 234 228 207 139 63 235 220 230 345 66 120 144 147 158 171 186 188 190 208 155 82 128 153 174 193 203 272 288 274 265 239 236 249 257 222 109 44 236 232 251 87 68 28 13 338 51 293 284 276 249 241 250 248 264 273 263 279 235 189 211 294 284 187 152 102 105 118 126 120 105 97 82 73 69 62 66
254 254 254 250 245 242 242 245 245 242 236 234 230 211 183 141 192 227 220 231 320 149 140 159 149 167 200 226 199 180 201 162 131 164 178 159 183 200 229 241 225 239 245 239 241 245 221 192 219 220 216 180 116 134 77 76 110 218 260 287 295 268 231 235 224 207 259 266 314 17 182 210 247 239 207 122 106 86 111 138 131 115 105 90 76 69 60 59
257 256 253 246 239 236 232 236 242 235 225 225 221 197 168 185 222 223 197 72 263 198 150 131 120 169 197 292 304 153 179 170 159 197 217 172 196 206 213 220 217 254 263 263 260 240 219 214 205 185 186 195 196 203 170 155 179 207 238 252 279 283 257 255 247 234 260 262 84 78 154 229 248 252 254 229 120 98 97 116 122 120 110 96 80 70 65 62
259 256 252 240 233 229 223 224 227 220 216 215 208 177 142 223 223 201 185 190 228 92 77 63 75 154 173 224 231 136 306 204 153 190 239 196 241 231 221 222 214 265 276 293 314 296 272 215 178 178 188 192 196 215 228 209 181 191 212 217 236 276 274 271 275 266 268 269 108 102 93 258 265 265 247 231 102 90 93 94 101 106 102 96 89 78 67 66
254 248 241 229 221 219 214 215 213 207 208 200 185 151 190 228 222 136 199 211 210 70 81 76 100 159 209 229 205 128 212 204 123 160 201 194 239 257 246 225 201 229 270 282 294 278 278 290 178 177 154 169 189 225 268 323 191 199 206 222 237 260 266 270 279 269 274 292 287 196 195 263 283 356 91 107 94 92 91 88 89 91 92 93 90 82 68 65
249 239 231 223 217 212 207 208 205 205 210 192 174 194 219 228 230 197 220 219 202 112 101 98 110 172 255 238 180 140 212 238 101 120 204 215 248 276 276 245 191 206 240 260 279 264 265 278 134 104 49 166 190 231 300 327 248 206 172 226 247 262 260 266 274 275 287 298 282 238 235 273 277 135 107 99 94 92 87 88 89 86 89 90 82 75 69 65
251 244 237 231 222 212 206 206 201 201 203 188 190 228 226 234 229 216 245 232 213 120 106 202 173 229 270 255 205 189 186 223 158 160 187 207 247 253 253 262 167 185 177 192 261 258 261 272 94 88 272 182 187 340 13 274 274 120 146 222 266 318 292 276 273 273 275 273 269 257 259 270 269 223 125 101 92 96 94 91 90 88 87 85 79 74 71 71
254 252 249 242 231 216 203 199 201 204 199 190 212 229 223 241 232 227 343 336 275 37 92 231 207 227 265 269 246 209 171 180 193 190 209 211 226 220 224 227 157 191 204 205 259 247 265 275 238 218 247 178 50 348 281 256 294 151 192 271 349 313 276 260 266 268 260 259 258 253 261 268 272 259 134 118 116 111 106 98 96 96 91 85 83 80 75 73
254 255 256 252 240 219 199 191 198 205 196 196 228 235 234 238 234 230 168 114 19 44 183 229 222 221 253 268 281 230 164 196 198 185 227 239 219 182 212 234 120 152 227 192 224 245 274 276 263 259 279 134 97 301 245 205 277 226 257 339 316 264 258 241 249 258 256 261 260 248 255 261 259 265 255 167 146 127 118 114 105 100 97 93 91 85 74 70
249 248 255 257 241 215 199 188 191 199 197 215 233 234 243 244 242 238 210 178 129 118 212 241 235 232 237 255 281 262 185 231 251 240 240 244 238 193 180 282 93 77 15 183 224 286 25 269 271 68 51 98 129 226 232 210 138 103 274 268 233 260 275 259 266 283 255 261 267 256 253 253 256 285 323 123 136 136 136 129 114 104 101 95 92 83 66 59
235 228 252 254 227 203 193 184 186 194 201 227 231 228 254 251 242 232 218 210 196 175 216 240 236 243 252 258 267 264 240 247 254 253 248 251 263 252 81 20 46 81 37 1 243 288 235 252 263 242 162 254 231 223 243 260 250 213 226 232 216 214 263 281 272 244 247 259 264 263 260 254 274 356 58 100 114 125 133 131 126 116 106 94 87 81 59 48
205 210 248 231 203 187 179 177 191 200 205 225 230 233 241 240 215 206 208 209 213 213 215 231 239 247 256 258 258 259 258 250 243 250 251 246 257 259 76 40 18 58 34 305 258 269 259 252 262 264 260 259 263 269 278 275 272 268 254 248 254 256 261 272 260 234 227 251 256 262 264 256 297 17 60 91 89 94 110 118 121 118 112 101 82 68 59 49
188 212 229 202 190 177 169 174 203 204 211 224 225 226 223 214 213 213 205 203 212 220 217 224 236 238 240 245 250 252 249 246 242 245 249 245 250 256 60 50 23 32 337 292 278 247 223 252 259 264 260 261 273 283 291 271 269 274 268 264 268 266 248 254 266 266 256 264 270 262 260 257 67 43 59 81 82 84 92 105 117 120 116 108 89 68 59 43
194 211 189 185 184 175 170 188 212 202 219 227 223 222 212 210 230 229 216 209 214 219 219 225 229 233 243 245 250 255 250 247 246 242 247 253 253 266 56 52 1 357 311 285 278 120 133 250 258 264 265 271 276 275 303 66 277 256 256 265 270 275 279 276 278 289 284 276 280 267 259 260 57 46 70 92 100 105 113 126 133 136 140 140 139 123 88 51
195 192 176 180 179 176 180 208 209 207 222 222 225 229 224 230 238 231 224 218 220 223 225 234 235 237 246 247 248 251 247 248 253 250 254 258 259 68 57 22 342 306 319 311 300 348 285 264 272 281 282 287 276 257 219 71 37 255 280 300 310 298 303 308 280 274 264 237 243 258 264 258 99 112 144 142 146 149 150 152 152 156 160 162 160 149 123 83
181 182 181 182 179 186 205 231 221 223 223 221 232 234 231 237 228 223 232 232 229 232 234 240 243 246 248 246 248 245 236 238 250 265 264 254 254 67 55 21 10 353 16 45 77 79 275 270 277 282 275 272 267 263 270 304 88 71 275 263 266 262 266 288 291 274 263 232 233 255 273 279 247 227 230 202 170 164 159 160 170 175 175 176 178 175 170 164
187 194 176 178 187 203 225 240 239 242 226 222 234 232 233 239 220 203 222 236 238 237 241 248 247 250 249 243 247 250 243 239 241 251 256 247 250 73 80 53 47 75 92 90 105 145 279 270 257 257 259 261 266 273 287 295 284 280 276 268 268 264 259 268 268 259 269 285 273 260 264 275 275 271 273 262 181 180 187 179 182 182 179 185 192 196 205 217
206 224 175 169 192 216 231 235 230 235 231 226 228 228 233 239 234 206 203 227 242 234 239 250 243 238 241 240 245 253 253 250 246 247 254 260 263 248 131 96 62 88 126 126 142 229 270 266 260 257 255 259 267 272 277 281 278 278 281 278 276 275 268 260 255 260 278 287 275 265 268 274 276 278 284 289 279 245 207 180 184 185 180 188 200 213 224 230
209 257 175 172 186 215 223 220 214 220 230 232 233 239 239 237 235 226 208 208 222 218 228 244 240 236 240 243 246 248 250 252 249 247 253 264 271 267 209 157 121 130 159 151 160 209 263 268 269 271 269 269 274 276 276 278 278 279 277 274 274 274 269 263 262 269 274 269 268 277 280 279 281 281 282 289 299 285 156 150 163 172 182 199 215 230 238 237
218 294 195 183 188 208 201 185 195 213 226 231 235 242 242 239 235 230 198 197 212 214 224 236 240 235 242 247 238 232 244 253 258 261 283 18 336 292 268 248 173 142 163 182 190 204 253 268 269 276 279 274 272 272 274 276 277 275 271 270 271 269 266 268 272 275 273 267 268 273 274 273 275 279 281 294 49 98 116 130 155 182 208 225 238 249 253 252
214 245 179 179 185 70 81 146 179 203 222 228 233 239 238 240 239 229 166 201 225 216 219 230 225 107 79 210 203 218 239 256 310 295 16 19 298 285 273 271 265 143 159 210 225 225 251 266 312 332 282 271 266 268 273 277 278 278 275 272 267 265 266 269 272 273 272 269 266 264 265 269 273 284 348 77 91 97 115 152 203 230 240 255 269 271 269 267
221 214 172 176 200 157 140 165 186 198 219 219 222 235 235 237 240 232 206 120 241 239 229 222 185 118 122 209 224 244 266 46 55 266 268 271 279 300 316 300 323 147 180 205 218 247 264 271 336 318 269 263 263 269 275 286 289 278 267 261 258 260 264 264 263 265 265 265 265 263 266 274 282 82 91 112 110 91 261 263 285 287 281 285 287 286 287 283
224 215 191 190 206 174 161 167 194 203 219 216 214 223 226 224 225 221 212 135 96 247 242 183 171 216 238 238 239 257 304 43 94 131 112 197 255 275 269 259 255 251 230 196 195 224 243 264 283 275 265 261 262 271 287 311 289 264 250 247 250 254 258 258 257 256 255 258 265 270 274 279 125 112 143 155 102 26 317 308 311 304 296 293 290 288 291 291